カタログに戻る

FENGYUN 1C DEB

運用中SSO
NORAD 30453·DEBRIS·🇨🇳 China

打ち上げ May 10, 1999 から Taiyuan Satellite Launch Center

Loading…

次のパス (今後24時間)

TLE

最新Source: Space-Track

元期: Sep 14, 2026, 12:02 UTC

1 30453U 99025AFQ 26257.50205634  .00002055  00000-0  81638-3 0  9998
2 30453  98.7958 335.3622 0114501 146.8885 340.5150 14.26276362 11648

AllMySatでFENGYUN 1C DEBをリアルタイム追跡

Download on the App Store